Regional Weather Roundup
Issued by NWS

Home | Current Version | Previous Version | Text Only | Print | Product List | Glossary On
Versions: 1 2 3 4 5 6 7 8 9 10 11 12 13 14 15 16 17 18 19 20 21 22 23 24 25 26 27 28 29 30 31 32 33 34 35 36 37 38 39 40 41 42 43 44 45 46 47 48 49 50
309
ASUS44 KLIX 251511
RWRLA
LOUISIANA WEATHER ROUNDUP
NATIONAL WEATHER SERVICE NEW ORLEANS LA
1000 AM CDT MON JUL 25 2016

NOTE: "FAIR" INDICATES FEW OR NO CLOUDS BELOW 12,000 FEET WITH NO
      SIGNIFICANT WEATHER AND/OR OBSTRUCTIONS TO VISIBILITY.
      SKY/WX - SKY CONDITION AND SIGNIFICANT WEATHER.
      TMP - AIR TEMPERATURE.    DP   - DEWPOINT TEMPERATURE.
      RH  - RELATIVE HUMIDITY.  PRES - PRESSURE.
      HX  - HEAT INDEX.         WCI  - WIND CHILL INDEX.

*  THESE STATIONS ARE NOT NWS OR FAA STATIONS AND ARE NOT UNDER
   NWS QUALITY CONTROL.

LAZ040-048-061>063-065-066-069-251600-
SOUTHEAST LOUISIANA

CITY           SKY/WX    TMP DP  RH WIND       PRES   REMARKS
N.O. AUDUBON   NOT AVBL
N.O. INTL ARPT CLOUDY    85  76  74 NE10      29.98F
N.O. LAKEFRONT CLOUDY    85  76  74 E6        29.99F
N.O. DOWNTOWN* FAIR      84  76  76 CALM      29.99F
RESERVE*       FAIR      82  79  91 E5        29.98F
SLIDELL        CLOUDY    82  78  88 E7        29.99S
BATON ROUGE    PTSUNNY   86  75  69 N10       29.98F HX  95
BOOTHVILLE     MOSUNNY   86  76  71 VRB5      29.98F HX  96
BELLE CHASSE   CLOUDY    85  79  82 NE8       29.97F HX  98
BOGALUSA*      PTSUNNY   84  76  78 CALM      30.01F
GALLIANO*      LGT RAIN  73  73 100 E3        29.97F
NEW ROADS*     FAIR      85  76  76 E6        29.98F
GONZALES*      PTSUNNY   84  77  79 N5        29.97F
HAMMOND*       MOSUNNY   88  73  62 NE8       29.98F HX  96
HOUMA*         PTSUNNY   82  79  89 NE5       29.97F
PORT FOURCHON* NOT AVBL

$$

LAZ041-044-053-054-251600-
SOUTHWEST LOUISIANA

CITY           SKY/WX    TMP DP  RH WIND       PRES   REMARKS
LAKE CHARLES   PTSUNNY   85  77  77 NE7       29.97F HX  95
LAFAYETTE      SUNNY     86  77  74 NE6       29.98F HX  97
PATTERSON      PTSUNNY   85  79  82 N7        29.98S HX  98
SALT POINT       N/A     85  76  74 CALM      29.96S
NEW IBERIA     MOSUNNY   86  77  74 N8        29.98F HX  97
CHENAULT AIRPK MOSUNNY   82  77  83 VRB5      29.98F

$$

LAZ027-028-251600-
CENTRAL LOUISIANA

CITY           SKY/WX    TMP DP  RH WIND       PRES   REMARKS
FORT POLK      NOT AVBL
ALEXANDRIA INT CLOUDY    84  76  76 CALM      29.97F
ALEXANDRIA     CLOUDY    81  78  91 VRB3      30.00S

$$

LAZ001-002-251600-
NORTHWEST LOUISIANA

CITY           SKY/WX    TMP DP  RH WIND       PRES   REMARKS
SHREVEPORT     CLOUDY    82  75  79 CALM      30.00S
BARKSDALE AFB  CLOUDY    81  73  75 SE5       30.00S
DTN SHREVEPORT CLOUDY    82  73  74 E5        30.00S

$$

LAZ014-016-251600-
NORTHEAST LOUISIANA

CITY           SKY/WX    TMP DP  RH WIND       PRES   REMARKS
MONROE         MOSUNNY   82  77  84 SE3       30.01F
TALLULAH       SUNNY     85  75  72 S6        30.00F

$$





USA.gov is the U.S. government's official web portal to all federal, state and local government web resources and services.